Regional Weather Roundup
Issued by NWS Albany, NY

Current Version | Previous Version | Text Only | Print | Product List | Glossary On
Versions: 1 2 3 4 5 6 7 8 9 10 11 12 13 14 15 16 17 18 19 20 21 22 23 24 25 26 27 28 29 30 31 32 33 34 35 36 37 38 39 40 41 42 43 44 45 46 47 48 49
000
ASUS41 KALY 240410
RWRALY

NEW YORK STATE HOURLY WEATHER ROUNDUP
NATIONAL WEATHER SERVICE ALBANY NY
1200 AM EDT WED SEP 24 2014

NOTE: "FAIR" INDICATES FEW OR NO CLOUDS BELOW 12,000 FEET WITH NO
SIGNIFICANT WEATHER AND/OR NO OBSTRUCTIONS TO VISIBILITY.

NYZ032-033-038>043-046>054-057>066-NYZ062>081-240500-
EAST


CITY           SKY/WX    TMP DP  RH WIND       PRES   REMARKS
ALBANY         PTCLDY    53  49  86 CALM      30.43R
GLENS FALLS    CLEAR     50  48  93 N3        30.42S
POUGHKEEPSIE   CLEAR     50  47  89 E3        30.43R
NEWBURGH       CLEAR     55  50  82 CALM      30.43R
MONTGOMERY     CLEAR     52  47  83 CALM      30.42R
WHITE PLAINS   CLEAR     54  49  83 CALM      30.42R
ISLIP          PTCLDY    54  49  83 N3        30.41R
NEW YORK CITY  CLEAR     63  51  65 CALM      30.41R
CENTRAL PARK   CLEAR     62  51  67 CALM      30.44R
$$

NYZ005>009-017-018-044>046-055-056-240500-
CENTRAL


CITY           SKY/WX    TMP DP  RH WIND       PRES   REMARKS
FULTON         CLEAR     53  49  86 E5        30.41R
SYRACUSE       PTCLDY    54  50  86 CALM      30.41R
ROME           CLEAR     53  51  93 CALM      30.43R
ELMIRA         CLEAR     46  46 100 CALM      30.43R FOG
BINGHAMTON     CLEAR     54  49  83 SE5       30.43R
MONTICELLO     CLEAR     52  48  87 CALM      30.45S
$$

NYZ026>034-041>043-240500-
NORTH


CITY           SKY/WX    TMP DP  RH WIND       PRES   REMARKS
WATERTOWN      CLEAR     57  48  72 S5        30.40R
FORT DRUM      NOT AVBL
MASSENA        FOG       46  46 100 CALM      30.42R VSB 1/4
SARANAC LAKE   FOG       45  45 100 CALM      30.42R VSB 1/4
PLATTSBURGH    CLEAR     47  47 100 S3        30.42R
$$

NYZ001>004-010>016-019>021-240500-
WEST


CITY           SKY/WX    TMP DP  RH WIND       PRES   REMARKS
NIAGARA FALLS  CLEAR     54  50  86 CALM      30.39R
BUFFALO        CLEAR     54  50  86 SE6       30.40R
DUNKIRK        CLEAR     47  45  93 S5        30.40R
JAMESTOWN      CLEAR     54  48  82 NE3       30.41S
WELLSVILLE     CLEAR     53  50  89 CALM      30.44S
ROCHESTER      CLEAR     54  51  90 SW3       30.40R
PENN YAN       CLEAR     54  52  93 SW5       30.42R
$$

             KEY
       WCI = WIND CHILL INDEX
       VSB = VISIBILITY
       HX  = HEAT INDEX
$$


USA.gov is the U.S. government's official web portal to all federal, state and local government web resources and services.